Regional Weather Roundup
Issued by NWS Albany, NY

Home | Current Version | Previous Version | Text Only | Print | Product List | Glossary On
Versions: 1 2 3 4 5 6 7 8 9 10 11 12 13 14 15 16 17 18 19 20 21 22 23 24 25 26 27 28 29 30 31 32 33 34 35 36 37 38 39 40 41 42 43 44 45 46 47 48 49 50
000
ASUS41 KALY 291410
RWRALY

NEW YORK STATE HOURLY WEATHER ROUNDUP
NATIONAL WEATHER SERVICE ALBANY NY
1000 AM EDT SUN MAY 29 2016

NOTE: "FAIR" INDICATES FEW OR NO CLOUDS BELOW 12,000 FEET WITH NO
SIGNIFICANT WEATHER AND/OR NO OBSTRUCTIONS TO VISIBILITY.

NYZ032-033-038>043-046>054-057>066-NYZ062>081-082-084-291500-
EAST


CITY           SKY/WX    TMP DP  RH WIND       PRES   REMARKS
ALBANY         PTSUNNY   80  68  66 SE6       30.10F
GLENS FALLS    SUNNY     79  67  66 S7        30.10F
POUGHKEEPSIE   SUNNY     82  67  60 SW6       30.11S
NEWBURGH       SUNNY     79  70  73 W9        30.14S
MONTGOMERY     SUNNY     80  69  69 S8        30.12S
WHITE PLAINS   SUNNY     80  62  54 SW3       30.14S
ISLIP          PTSUNNY   77  59  53 S8        30.15S
NEW YORK CITY  PTSUNNY   82  63  52 SW8       30.13S
CENTRAL PARK   SUNNY     79  58  48 CALM      30.17S
$$

NYZ005>009-017-018-044>046-055-056-291500-
CENTRAL


CITY           SKY/WX    TMP DP  RH WIND       PRES   REMARKS
FULTON         PTSUNNY   81  69  67 SW5       30.08S
SYRACUSE       PTSUNNY   84  66  54 SW7       30.06F
ROME           SUNNY     81  68  64 SE5       30.09F
ELMIRA         PTSUNNY   80  67  64 W5        30.11S
BINGHAMTON     MOSUNNY   77  67  71 SW6       30.15S
MONTICELLO     SUNNY     79  70  73 CALM      30.18F
$$

NYZ026>034-041>043-087-291500-
NORTH


CITY           SKY/WX    TMP DP  RH WIND       PRES   REMARKS
WATERTOWN      PTSUNNY   78  67  68 W6        30.06F
FORT DRUM      NOT AVBL
MASSENA        LGT RAIN  65  58  78 NE6       30.08F
SARANAC LAKE   CLOUDY    73  63  70 SW3       30.13S
PLATTSBURGH    SUNNY     75  63  66 SE5       30.08F
$$

NYZ001>004-010>016-019>021-085-291500-
WEST


CITY           SKY/WX    TMP DP  RH WIND       PRES   REMARKS
NIAGARA FALLS  PTSUNNY   79  66  64 S10       30.07F
BUFFALO        PTSUNNY   77  66  68 SW9       30.09S
DUNKIRK        MOSUNNY   79  64  60 SW6       30.10S
JAMESTOWN      CLOUDY    73  64  73 CALM      30.15F
WELLSVILLE     MOSUNNY   78  67  68 VRB5      30.18S
ROCHESTER      PTSUNNY   81  67  62 NW7       30.09S
PENN YAN       CLOUDY    77  67  71 E5        30.12S
$$

             KEY
       WCI = WIND CHILL INDEX
       VSB = VISIBILITY
       HX  = HEAT INDEX
$$



USA.gov is the U.S. government's official web portal to all federal, state and local government web resources and services.